Location: Ahausen
(50.4985°N, 8.2722°E)
Time: 09:43:46
(UTC+00:00)

First-Move - Visible Passes

Search period start: 27 June 2022 00:00
Search period end: 07 July 2022 00:00
Orbit: 571 x 660 km, 97.6° (Epoch: 26 June)

Date Brightness Start Highest point End Pass type
(mag) Time Alt. Az. Time Alt. Az. Time Alt. Az.
29 Jun ? 02:13:34 10° ENE 02:15:38 13° E 02:17:43 10° ESE visible
30 Jun ? 02:28:42 10° NE 02:31:47 18° E 02:34:54 10° SE visible
05 Jul ? 02:13:05 10° ENE 02:15:17 13° E 02:17:29 10° ESE visible
06 Jul ? 02:28:13 10° NE 02:31:24 19° E 02:34:35 10° SE visible
